FW7647 Weather Reports


time (UTC)temp
F
wind
direction
speed
knots
gust
knots
rain 1hr
in
rain 24hr
in
rain mn
in
humidity
%
barometer
mb
20260505140525 73 183 4.3 9.6 0.00 0.00 0.00 66 1017.6
20260505124938 70 59 1.7 2.6 0.00 0.00 0.00 73 1017.2
20260505124435 70 58 1.7 2.6 0.00 0.00 0.00 74 1017.2
20260505123931 69 70 0.9 2.6 0.00 0.00 0.00 75 1017.6
20260505123428 69 71 0.9 1.7 0.00 0.00 0.00 77 1017.6
20260505122923 68 79 0.9 1.7 0.00 0.00 0.00 79 1017.6
20260505122421 68 68 1.7 1.7 0.00 0.00 0.00 81 1017.6
20260505121918 68 111 0.9 1.7 0.00 0.00 0.00 83 1017.2
20260505121415 67 112 0.9 1.7 0.00 0.00 0.00 85 1017.6
20260505120910 67 112 0.9 0.9 0.00 0.00 0.00 87 1017.2
20260505120407 66 112 0.0 0.9 0.00 0.00 0.00 88 1017.2
20260505115906 65 112 0.9 1.7 0.00 0.00 0.00 88 1017.2
20260505115403 64 112 0.9 1.7 0.00 0.00 0.00 89 1017.2
20260505114901 64 169 0.9 1.7 0.00 0.00 0.00 90 1017.2
20260505114357 63 170 0.0 0.9 0.00 0.00 0.00 90 1016.9
20260505113853 62 170 0.0 0.9 0.00 0.00 0.00 90 1016.9
20260505113350 62 170 0.9 0.9 0.00 0.00 0.00 91 1016.9
20260505112846 61 170 0.0 0.9 0.00 0.00 0.00 91 1016.6
20260505112344 59 170 0.0 0.9 0.00 0.00 0.00 90 1016.9
20260505111839 58 171 0.0 0.0 0.00 0.00 0.00 90 1016.6
20260505111335 58 171 0.0 0.0 0.00 0.00 0.00 90 1016.6
20260505110831 58 171 0.0 0.0 0.00 0.00 0.00 90 1016.6
20260505110328 58 171 0.0 0.0 0.00 0.00 0.00 89 1016.9
20260505101803 58 171 0.0 0.9 0.00 0.00 0.00 88 1016.6
20260505101258 58 172 0.9 0.9 0.00 0.00 0.00 87 1016.6
20260505100755 58 171 0.0 0.9 0.00 0.00 0.00 87 1016.6
20260505100252 58 171 0.0 0.9 0.00 0.00 0.00 87 1016.2
20260505095747 58 171 0.9 0.9 0.00 0.00 0.00 87 1016.2
20260505095245 59 171 0.0 0.9 0.00 0.00 0.00 86 1016.2
20260505094740 59 171 0.0 0.0 0.00 0.00 0.00 86 1016.2
20260505094238 59 171 0.0 0.0 0.00 0.00 0.00 86 1016.2
20260505093733 59 171 0.0 0.0 0.00 0.00 0.00 85 1016.2
20260505093231 59 171 0.0 0.0 0.00 0.00 0.00 85 1016.2
20260505092728 59 171 0.0 0.9 0.00 0.00 0.00 84 1016.2
20260505092227 60 171 0.0 0.9 0.00 0.00 0.00 84 1016.2
20260505091723 60 172 0.0 0.9 0.00 0.00 0.00 84 1016.2
20260505091221 60 172 0.0 0.9 0.00 0.00 0.00 83 1015.9
20260505090719 60 172 0.0 0.9 0.00 0.00 0.00 83 1016.2
20260505090217 61 172 0.0 0.9 0.00 0.00 0.00 82 1016.2
20260505085714 61 171 0.0 0.9 0.00 0.00 0.00 82 1016.2
20260505085212 61 172 0.0 0.9 0.00 0.00 0.00 81 1015.9
20260505084709 62 172 0.0 0.9 0.00 0.00 0.00 81 1015.9
20260505084208 62 171 0.0 0.9 0.00 0.00 0.00 81 1015.9
20260505083705 62 172 0.0 0.9 0.00 0.00 0.00 81 1015.5
20260505083201 62 171 0.0 2.6 0.00 0.00 0.00 81 1015.5
20260505082657 62 171 0.0 2.6 0.00 0.00 0.00 80 1015.5
20260505082155 62 203 0.0 0.9 0.00 0.00 0.00 80 1015.5
20260505081650 63 203 0.0 1.7 0.00 0.00 0.00 80 1015.5
20260505081148 63 204 0.9 1.7 0.00 0.00 0.00 80 1015.5
20260505080645 63 193 0.0 1.7 0.00 0.00 0.00 80 1015.5
20260505080141 63 172 0.0 2.6 0.00 0.00 0.00 79 1015.9
20260505075637 63 164 0.0 2.6 0.00 0.00 0.00 79 1015.5
20260505075134 64 149 0.9 1.7 0.00 0.00 0.00 78 1015.5
20260505074631 64 183 0.0 4.3 0.00 0.00 0.00 78 1015.5
20260505074128 64 201 0.9 4.3 0.00 0.00 0.00 77 1015.5
20260505073626 64 190 0.0 2.6 0.00 0.00 0.00 76 1015.5
20260505073124 64 164 0.9 2.6 0.00 0.00 0.00 75 1015.5
20260505072619 64 197 0.9 2.6 0.00 0.00 0.00 75 1015.5
20260505072116 64 187 1.7 6.1 0.00 0.00 0.00 74 1015.5
20260505071611 64 196 1.7 7.0 0.00 0.00 0.00 74 1015.5
20260505071109 64 206 4.3 7.0 0.00 0.00 0.00 74 1015.5
20260505070606 65 243 2.6 7.8 0.00 0.00 0.00 74 1015.5
20260505065558 65 173 5.2 9.6 0.00 0.00 0.00 73 1015.5
20260505065055 65 176 4.3 9.6 0.00 0.00 0.00 73 1015.5
20260505064552 65 193 6.1 9.6 0.00 0.00 0.00 73 1015.5
20260505064051 65 180 4.3 9.6 0.00 0.00 0.00 73 1015.9
20260505063547 66 179 4.3 7.8 0.00 0.00 0.00 72 1015.5
20260505063043 66 178 6.1 8.7 0.00 0.00 0.00 72 1015.9
20260505062540 66 181 5.2 12.2 0.00 0.00 0.00 72 1015.9
20260505062037 66 181 7.0 12.2 0.00 0.00 0.00 72 1015.9
20260505061534 66 168 6.1 9.6 0.00 0.00 0.00 72 1016.2
20260505061032 66 160 6.1 9.6 0.00 0.00 0.00 72 1016.2
20260505060529 66 164 7.0 9.6 0.00 0.00 0.00 71 1016.2
20260505060026 66 189 6.1 12.2 0.00 0.00 0.00 71 1016.6
20260505055521 67 177 7.8 12.2 0.00 0.00 0.00 71 1016.2
20260505055018 67 188 8.7 11.3 0.00 0.00 0.00 70 1016.6
20260505054516 67 161 6.1 11.3 0.00 0.00 0.00 70 1016.6
20260505054014 67 180 7.0 12.2 0.00 0.00 0.00 70 1016.6
20260505053511 67 186 7.0 12.2 0.00 0.00 0.00 70 1016.6
20260505053007 67 176 9.6 12.2 0.00 0.00 0.00 70 1016.9
20260505052505 67 175 7.8 12.2 0.00 0.00 0.00 70 1016.9
20260505052002 67 177 7.8 11.3 0.00 0.00 0.00 69 1016.9
20260505051458 68 171 7.8 13.9 0.00 0.00 0.00 69 1016.9
20260505050957 68 184 7.8 13.9 0.00 0.00 0.00 68 1016.9
20260505050454 68 174 9.6 14.8 0.00 0.00 0.00 68 1017.2
20260505041422 69 162 8.7 13.0 0.00 0.00 0.00 68 1017.2
20260505040919 69 182 6.1 13.0 0.00 0.00 0.00 68 1017.2
20260505040417 69 176 8.7 15.6 0.00 0.00 0.00 69 1017.2
20260505035913 69 176 7.0 15.6 0.00 0.00 0.00 68 1017.2
20260505035409 69 186 9.6 15.6 0.00 0.00 0.00 69 1017.2
20260505034907 69 171 8.7 13.9 0.00 0.00 0.00 69 1017.2
20260505034403 69 167 8.7 14.8 0.00 0.00 0.00 70 1017.2
20260505033900 69 171 8.7 14.8 0.00 0.00 0.00 70 1017.2
20260505033357 69 178 8.7 14.8 0.00 0.00 0.00 70 1017.2
20260505032855 69 160 8.7 14.8 0.00 0.00 0.00 70 1017.2
20260505032352 69 174 9.6 13.0 0.00 0.00 0.00 70 1017.2
20260505031848 69 160 7.8 13.0 0.00 0.00 0.00 70 1017.2
20260505031345 69 175 7.0 12.2 0.00 0.00 0.00 70 1017.2
20260505030843 69 167 7.8 13.0 0.00 0.00 0.00 69 1017.2
20260505030338 69 174 6.1 13.0 0.00 0.00 0.00 69 1017.2
20260505025834 69 174 7.8 12.2 0.00 0.00 0.00 69 1017.2
20260505025332 69 177 7.0 12.2 0.00 0.00 0.00 68 1017.2
20260505024830 68 178 7.0 12.2 0.00 0.00 0.00 68 1017.2
20260505024327 68 177 6.1 11.3 0.00 0.00 0.00 68 1017.2
20260505023824 68 183 6.1 11.3 0.00 0.00 0.00 68 1016.9
20260505023321 68 161 4.3 9.6 0.00 0.00 0.00 68 1016.9
20260505022819 68 183 7.8 11.3 0.00 0.00 0.00 67 1017.2
20260505022315 68 191 6.1 11.3 0.00 0.00 0.00 67 1016.9
20260505021813 68 164 6.1 11.3 0.00 0.00 0.00 67 1016.9
20260505021309 68 151 5.2 8.7 0.00 0.00 0.00 67 1016.9
20260505020805 68 180 6.1 9.6 0.00 0.00 0.00 66 1016.9
20260505020301 68 164 6.1 9.6 0.00 0.00 0.00 66 1016.6
20260505015758 68 169 7.8 9.6 0.00 0.00 0.00 66 1016.9
20260505015255 68 161 6.1 9.6 0.00 0.00 0.00 67 1016.9
20260505014752 68 159 4.3 9.6 0.00 0.00 0.00 68 1016.9
20260505014249 67 158 6.1 7.8 0.00 0.00 0.00 68 1016.9
20260505013745 67 178 4.3 7.8 0.00 0.00 0.00 68 1016.9
20260505013243 67 169 4.3 7.8 0.00 0.00 0.00 68 1016.6
20260505012741 67 155 4.3 7.0 0.00 0.00 0.00 68 1016.9
20260505012238 67 178 4.3 7.8 0.00 0.00 0.00 67 1016.9
20260505011733 67 148 5.2 7.8 0.00 0.00 0.00 67 1016.9
20260505011231 68 166 3.5 7.0 0.00 0.00 0.00 66 1016.6
20260505010726 68 164 5.2 7.8 0.00 0.00 0.00 65 1016.6
20260505010223 68 154 5.2 9.6 0.00 0.00 0.00 65 1016.9
20260505005719 68 178 6.1 9.6 0.00 0.00 0.00 65 1016.6
20260505005217 68 162 4.3 11.3 0.00 0.00 0.00 65 1016.6
20260505004714 68 173 5.2 11.3 0.00 0.00 0.00 64 1016.9
20260505004210 68 157 4.3 8.7 0.00 0.00 0.00 63 1016.6
20260505003707 68 180 4.3 8.7 0.00 0.00 0.00 63 1016.6
20260505003205 68 167 6.1 7.8 0.00 0.00 0.00 63 1016.6
20260505002701 68 174 6.1 9.6 0.00 0.00 0.00 62 1016.6
20260505002159 68 168 6.1 9.6 0.00 0.00 0.00 61 1016.6
20260505001655 68 176 6.1 9.6 0.00 0.00 0.00 61 1016.6
20260505001153 68 155 6.1 12.2 0.00 0.00 0.00 60 1016.6
20260505000650 69 179 4.3 12.2 0.00 0.00 0.00 59 1016.6
20260505000148 69 177 8.7 12.2 0.00 0.00 0.00 58 1016.6
20260504235644 69 168 7.0 11.3 0.00 0.00 0.00 58 1016.6
20260504235141 69 166 5.2 11.3 0.00 0.00 0.00 58 1016.6
20260504234638 69 163 5.2 12.2 0.00 0.00 0.00 57 1016.6
20260504234136 69 186 7.8 12.2 0.00 0.00 0.00 57 1016.6
20260504233631 70 182 5.2 11.3 0.00 0.00 0.00 56 1016.2
20260504233127 70 181 7.0 11.3 0.00 0.00 0.00 56 1016.2
20260504232625 70 153 5.2 13.0 0.00 0.00 0.00 55 1016.2
20260504232122 70 183 7.0 13.0 0.00 0.00 0.00 54 1016.2
20260504231618 70 166 7.8 14.8 0.00 0.00 0.00 55 1016.2
20260504231115 70 167 9.6 14.8 0.00 0.00 0.00 53 1016.2
20260504230611 71 165 7.8 18.2 0.00 0.00 0.00 53 1016.2
20260504230110 71 179 9.6 18.2 0.00 0.00 0.00 52 1016.6
20260504225608 71 153 7.8 15.6 0.00 0.00 0.00 52 1016.2
20260504225104 71 171 7.8 17.4 0.00 0.00 0.00 52 1016.6
20260504224601 71 173 7.8 17.4 0.00 0.00 0.00 51 1016.6
20260504224058 72 183 10.4 15.6 0.00 0.00 0.00 50 1016.6
20260504223554 73 171 7.8 17.4 0.00 0.00 0.00 48 1016.2
20260504223050 73 173 7.8 17.4 0.00 0.00 0.00 48 1016.6
20260504222547 74 177 10.4 15.6 0.00 0.00 0.00 46 1016.6
20260504222044 73 159 10.4 14.8 0.00 0.00 0.00 47 1016.6
20260504221542 73 199 8.7 14.8 0.00 0.00 0.00 48 1016.6
20260504221038 73 148 7.8 14.8 0.00 0.00 0.00 49 1016.6
20260504220535 72 142 7.8 18.2 0.00 0.00 0.00 48 1016.6
20260504220032 73 140 10.4 18.2 0.00 0.00 0.00 49 1016.6
20260504215528 73 168 7.8 17.4 0.00 0.00 0.00 48 1016.6
20260504215026 73 156 8.7 17.4 0.00 0.00 0.00 48 1016.6
20260504214522 73 173 7.0 15.6 0.00 0.00 0.00 47 1016.6
20260504214018 73 156 8.7 17.4 0.00 0.00 0.00 46 1016.6
20260504213515 73 150 9.6 17.4 0.00 0.00 0.00 46 1016.6
20260504213012 73 173 7.8 17.4 0.00 0.00 0.00 47 1016.6
20260504212508 73 179 8.7 17.4 0.00 0.00 0.00 44 1016.6
20260504212006 74 167 7.0 17.4 0.00 0.00 0.00 45 1016.6
20260504211502 75 168 10.4 17.4 0.00 0.00 0.00 46 1016.6
20260504210959 74 153 11.3 19.1 0.00 0.00 0.00 43 1016.6
20260504210456 74 152 10.4 19.1 0.00 0.00 0.00 44 1016.6
20260504205953 74 174 11.3 18.2 0.00 0.00 0.00 44 1016.6
20260504205450 74 178 11.3 18.2 0.00 0.00 0.00 47 1016.6
20260504204949 73 131 10.4 18.2 0.00 0.00 0.00 45 1016.6
20260504204447 74 161 9.6 19.1 0.00 0.00 0.00 44 1016.6
20260504203945 74 176 7.8 19.1 0.00 0.00 0.00 45 1016.6
20260504203443 73 163 9.6 15.6 0.00 0.00 0.00 45 1016.9
20260504202938 73 163 8.7 15.6 0.00 0.00 0.00 45 1016.9
20260504202435 73 164 7.0 19.1 0.00 0.00 0.00 46 1016.9
20260504201932 73 152 12.2 19.1 0.00 0.00 0.00 47 1016.9
20260504201429 73 160 8.7 19.1 0.00 0.00 0.00 47 1016.9
20260504200927 73 178 13.0 18.2 0.00 0.00 0.00 48 1016.9
20260504200423 73 152 10.4 20.9 0.00 0.00 0.00 50 1016.9
20260504195920 73 185 13.9 18.2 0.00 0.00 0.00 48 1016.9
20260504195416 73 193 9.6 18.2 0.00 0.00 0.00 48 1017.2
20260504194913 73 139 7.0 18.2 0.00 0.00 0.00 48 1016.9
20260504194409 74 178 10.4 17.4 0.00 0.00 0.00 49 1017.2
20260504193905 74 197 8.7 19.1 0.00 0.00 0.00 46 1017.2
20260504193402 74 166 13.9 19.1 0.00 0.00 0.00 45 1017.2
20260504192901 73 166 9.6 17.4 0.00 0.00 0.00 45 1017.2
20260504192358 73 161 9.6 17.4 0.00 0.00 0.00 44 1017.2
20260504191856 74 176 10.4 15.6 0.00 0.00 0.00 45 1017.6
20260504191354 74 159 9.6 17.4 0.00 0.00 0.00 45 1017.2
20260504190849 74 152 11.3 20.0 0.00 0.00 0.00 44 1017.6
20260504190345 73 187 13.0 20.0 0.00 0.00 0.00 44 1017.6
20260504185842 73 153 9.6 18.2 0.00 0.00 0.00 44 1017.6
20260504185339 73 139 7.8 15.6 0.00 0.00 0.00 46 1017.6
20260504184835 73 166 9.6 17.4 0.00 0.00 0.00 46 1017.6
20260504184331 74 185 7.8 17.4 0.00 0.00 0.00 40 1017.6
20260504183827 74 153 8.7 14.8 0.00 0.00 0.00 46 1017.6
20260504183325 73 150 10.4 15.6 0.00 0.00 0.00 45 1017.9
20260504182822 73 147 10.4 15.6 0.00 0.00 0.00 44 1017.6
20260504182319 73 195 9.6 15.6 0.00 0.00 0.00 47 1017.6
20260504181816 74 122 9.6 15.6 0.00 0.00 0.00 46 1017.6
20260504181314 74 172 12.2 15.6 0.00 0.00 0.00 46 1017.2
20260504180813 74 151 12.2 15.6 0.00 0.00 0.00 47 1017.6
20260504180311 74 164 11.3 15.6 0.00 0.00 0.00 45 1017.6
20260504175808 74 170 9.6 14.8 0.00 0.00 0.00 43 1017.2
20260504175305 74 151 7.0 13.9 0.00 0.00 0.00 44 1017.6
20260504174803 74 181 8.7 14.8 0.00 0.00 0.00 44 1017.9
20260504174300 74 172 7.8 15.6 0.00 0.00 0.00 44 1017.9
20260504173757 74 178 11.3 15.6 0.00 0.00 0.00 42 1017.9
20260504173254 74 151 7.8 14.8 0.00 0.00 0.00 44 1017.6
20260504172750 74 160 9.6 14.8 0.00 0.00 0.00 44 1017.9
20260504172247 74 184 10.4 15.6 0.00 0.00 0.00 44 1017.9
20260504171743 74 145 6.1 15.6 0.00 0.00 0.00 43 1017.6
20260504171241 75 184 11.3 13.9 0.00 0.00 0.00 44 1017.6
20260504170738 75 181 7.0 12.2 0.00 0.00 0.00 42 1017.9
20260504170235 74 154 0.9 6.1 0.00 0.00 0.00 35 1017.9
20260504160153 73 184 4.3 9.6 0.00 0.00 0.00 38 1018.3
20260504151121 72 300 0.0 4.3 0.00 0.00 0.00 45 1018.3
20260504150618 72 272 0.9 5.2 0.00 0.00 0.00 50 1018.3
20260504150115 72 315 0.9 6.1 0.00 0.00 0.00 50 1018.6